Home   Weather   Compton   Past weeks

Flag for USA Past Weather in Compton, California, USA — Yesterday and Last 2 Weeks

Now
55 °F

Passing clouds.


Feels Like: 52 °F
Forecast: 51 / 61 °F
Wind: 13 mph from West

Location: Hawthorne Municipal Airport

Current Time: Jan 20, 2017 at 8:54:20 pm

Latest Report: Jan 20, 2017 at 8:33 pm


Visibility: 10 mi

Pressure: 29.55 "Hg

Humidity: 72%

Dew Point: 46 °F

Location of ComptonLocation

Past Weather in Compton — Graph

°F

Compton Temperature Yesterday

Maximum temperature yesterday: 62 °F (at 12:53 pm)
Minimum temperature yesterday: 53 °F (at 2:20 am)
Average temperature yesterday: 56 °F

High & Low Weather Summary for the Past Weeks

 TemperatureHumidityPressure
High75 °F (Jan 8, 11:53 am)100% (Jan 9, 4:53 am)30.22 "Hg (Jan 9, 4:53 am)
Low47 °F (Jan 13, 6:53 am)26% (Jan 8, 2:53 pm)29.44 "Hg (Jan 20, 2:53 pm)
Average57 °F80%30.03 "Hg
* Reported Jan 5 7:28 pm — Jan 20 7:01 pm, Compton, Weather by CustomWeather, © 2017

Note: Actual official high and low records may vary slightly from our data, if they occured in-between our weather recording intervals... More about our weather records

Advertising

Compton Weather History for the Previous 24 Hours

Scroll right to see more
 ConditionsComfort  
Time TempWeatherWind HumidityBarometerVisibility
7:01 pm
Fri, Jan 20
55 °FPassing clouds.15 mph72%29.52 "Hg10 mi
6:44 pm55 °FPassing clouds.14 mph74%29.51 "Hg10 mi
6:00 pm55 °FPassing clouds.15 mph72%29.49 "Hg10 mi
4:53 pm56 °FPartly sunny.25 mph70%29.46 "Hg10 mi
3:53 pm57 °FMore clouds than sun.22 mph72%29.45 "Hg10 mi
2:53 pm59 °FPassing clouds.24 mph78%29.44 "Hg10 mi
2:05 pm58 °FLight rain. Mostly cloudy.24 mph81%29.45 "Hg8 mi
12:53 pm58 °FCloudy.16 mph90%29.47 "Hg10 mi
12:24 pm56 °FLight rain. Fog.15 mph97%29.51 "Hg3 mi
11:53 am51 °FHeavy rain. Fog.8 mph100%29.52 "Hg1 mi
11:15 am53 °FHeavy rain. Fog.13 mph93%29.58 "Hg2 mi
10:30 am54 °FLight rain. Fog.9 mph97%29.63 "Hg5 mi
9:53 am54 °FLight rain. Mostly cloudy.12 mph93%29.65 "Hg10 mi
8:58 am53 °FLight rain. Mostly cloudy.7 mph96%29.71 "Hg10 mi
8:32 am53 °FRain. Fog.8 mph96%29.72 "Hg6 mi
8:02 am52 °FRain. Fog.8 mph97%29.72 "Hg6 mi
7:13 am52 °FRain. Fog.9 mph93%29.76 "Hg6 mi
6:53 am52 °FHeavy rain. Fog.6 mph97%29.77 "Hg4 mi
6:00 am52 °FLight rain. Mostly cloudy.5 mph97%29.78 "Hg9 mi
4:53 am52 °FLight rain. Mostly cloudy.6 mph93%29.79 "Hg9 mi
3:53 am53 °FLight rain. Overcast.No wind93%29.80 "Hg10 mi
2:53 am54 °FLight rain. Mostly cloudy.No wind90%29.81 "Hg10 mi
1:53 am55 °FPartly cloudy.No wind83%29.85 "Hg10 mi
12:53 am55 °FPassing clouds.6 mph80%29.85 "Hg10 mi
12:28 am55 °FPassing clouds.9 mph77%29.87 "Hg10 mi
11:53 pm
Thu, Jan 19
56 °FMostly cloudy.8 mph84%29.87 "Hg10 mi
10:53 pm56 °FMostly cloudy.8 mph87%29.89 "Hg10 mi
10:39 pm55 °FLight rain. Mostly cloudy.3 mph90%29.89 "Hg10 mi
9:53 pm55 °FPassing clouds.5 mph90%29.91 "Hg10 mi
8:53 pm56 °FMostly cloudy.12 mph75%29.90 "Hg10 mi
8:33 pm56 °FMostly cloudy.10 mph87%29.91 "Hg10 mi
Weather by CustomWeather, © 2017

See weather overviewHow to use our weather pages